Location: The Saddle
(36.8333°N, 80.3417°W)
Time: 08:45:11
(UTC-05:00)

Vanguard 2 Rocket - Pass Details

Date: 12 December 2023
Orbit: 555 x 3309 km, 32.9° (Epoch: 02 March)

Event Time Altitude Azimuth Distance (km) Brightness Sun altitude
Rises 09:36:28 0° 184° (S) 4,246 11.1 19.4°
Reaches altitude 10° 09:40:29 10° 163° (SSE) 3,740 11.6 19.9°
Maximum altitude 09:46:13 17° 128° (SE) 3,856 12.1 20.6°
Drops below altitude 10° 09:53:39 10° 96° (E) 5,085 11.4 21.4°
Sets 10:00:44 0° 80° (E) 6,643 11.6 22.2°
